GFSNIL_sfc_dewp_000.txt.gz
Dewpoint
55 55 55 55 55 55 56 57 58 58 58 58 58 58 58 60 60 59 57 56 55 55
50 54 55 55 56 56 57 56 57 58 58 58 58 58 58 59 58 58 57 56 55 55
42 44 48 51 52 54 55 55 56 57 58 58 58 58 58 58 58 58 58 57 56 56
41 42 43 44 46 48 49 51 52 53 55 56 56 57 57 57 57 57 58 57 57 57
41 41 41 41 43 44 45 47 48 50 52 53 55 56 56 56 57 57 57 57 57 56
42 42 42 41 41 41 42 44 46 48 50 52 53 55 56 56 56 56 57 57 57 57
42 42 42 42 43 42 41 42 43 44 46 49 51 53 55 55 57 57 57 57 57 57
43 43 43 43 43 43 43 43 43 43 44 47 49 52 54 56 57 57 57 57 57 57
44 44 45 45 44 44 44 44 44 43 43 44 47 50 52 54 56 57 57 56 56 57
42 42 43 43 44 44 45 44 43 43 43 43 45 49 52 52 55 56 56 56 56 56
39 38 39 40 40 41 42 42 42 43 43 44 44 47 50 51 54 55 55 56 56 56
35 36 37 37 38 38 39 40 41 42 43 43 44 45 48 50 53 54 54 55 55 56
33 34 34 35 36 37 38 38 40 41 42 43 43 45 47 49 51 52 53 54 55 52
28 28 27 31 33 35 36 37 38 39 40 42 43 44 47 49 49 50 51 52 53 54

GFSNIL_sfc_dewp_003.txt.gz
Dewpoint
48 52 53 54 54 55 55 56 57 58 58 59 60 60 61 61 61 61 61 60 58 57
40 42 45 48 51 53 54 55 56 58 58 59 59 59 59 59 59 60 60 60 59 57
41 41 42 42 43 45 47 49 51 53 55 57 58 58 58 58 58 58 59 59 58 57
42 42 42 41 41 42 42 43 45 46 48 50 52 55 56 57 58 58 58 58 58 57
42 42 42 42 42 42 42 42 42 43 44 46 48 51 53 54 55 56 57 57 57 57
43 44 44 43 43 43 43 42 42 43 43 44 46 48 51 52 54 55 56 57 57 57
43 44 44 44 45 45 45 45 45 45 44 44 44 46 48 50 53 54 55 56 56 56
44 44 43 44 44 44 45 45 46 46 46 45 45 44 46 49 51 52 53 55 56 56
41 41 42 41 41 42 42 43 44 45 45 45 45 46 48 50 49 50 52 53 54 55
37 37 38 39 39 40 40 40 41 41 42 43 45 47 48 48 48 48 50 51 53 53
36 35 36 36 36 37 37 38 38 39 41 43 43 46 47 47 47 48 49 50 52 53
28 30 31 31 30 31 33 35 37 38 40 40 42 45 46 46 46 47 48 49 50 51
27 27 26 27 28 29 29 33 35 36 37 39 39 43 46 45 44 44 46 48 48 48
23 23 22 23 26 25 24 28 32 32 32 32 33 37 43 44 43 43 44 45 45 48

GFSNIL_sfc_dewp_006.txt.gz
Dewpoint
41 44 45 48 48 51 53 55 56 57 57 58 59 59 60 61 61 61 61 60 59 58
42 41 42 42 43 45 46 45 46 50 54 56 58 58 58 59 60 60 60 60 60 60
42 43 42 42 42 42 42 42 43 44 45 47 51 54 57 58 58 58 59 59 59 59
43 43 43 43 43 43 43 43 42 42 42 43 45 46 48 50 53 56 57 58 58 58
43 44 43 43 44 44 44 44 44 44 44 44 43 44 45 47 48 51 52 54 56 56
44 44 44 44 44 44 44 44 44 45 45 45 46 45 44 45 46 47 49 51 52 53
43 42 41 41 42 42 41 42 42 42 43 44 45 45 45 45 46 47 48 50 51 52
42 40 39 39 39 39 39 39 40 39 40 41 42 42 45 45 45 46 46 47 48 49
38 37 37 37 37 37 37 37 36 37 38 38 39 45 46 47 46 45 45 46 47 48
31 31 33 33 33 33 32 31 34 35 36 37 38 44 46 48 44 44 44 45 46 47
28 28 27 27 27 27 27 28 27 30 34 35 37 44 46 46 40 41 42 43 43 46
25 24 24 24 23 22 24 25 24 25 28 33 34 40 42 38 36 39 40 41 42 42
19 20 19 19 18 17 20 19 21 19 24 31 28 36 39 37 35 34 37 37 37 42
14 14 14 15 15 16 15 18 18 18 19 21 25 24 35 36 33 34 33 30 33 37

GFSNIL_sfc_dewp_009.txt.gz
Dewpoint
42 43 43 43 43 44 45 45 46 45 47 49 51 57 60 61 61 61 61 61 61 60
43 43 43 43 43 44 44 43 43 43 43 43 44 46 51 55 58 59 59 59 60 60
43 44 44 44 43 44 44 45 45 44 44 44 44 44 45 46 48 50 53 56 57 57
44 44 44 43 44 44 44 44 44 44 44 44 45 45 45 45 45 45 47 50 51 53
44 43 43 42 42 41 42 42 42 42 42 41 42 43 44 45 45 45 45 47 49 50
42 41 40 40 38 38 38 38 39 40 39 39 40 40 42 42 44 43 45 45 46 47
40 38 37 36 36 36 36 36 37 35 34 37 39 38 40 40 40 42 45 45 46 46
36 32 31 33 33 33 33 34 32 29 33 32 34 36 38 40 43 44 44 44 43 44
30 29 29 29 29 29 29 28 28 28 28 28 34 38 43 45 39 37 35 36 40 42
26 26 26 25 25 25 24 22 22 28 23 27 26 37 42 44 31 31 32 37 37 39
21 21 21 21 20 20 19 18 20 18 19 21 20 37 41 39 28 29 30 35 35 37
16 15 16 16 15 15 15 17 14 15 17 17 19 35 35 31 28 27 29 32 34 29
14 13 13 12 11 12 14 13 14 12 14 23 19 30 32 28 28 27 29 32 31 33
13 12 12 11 11 12 13 13 13 13 13 16 19 18 26 28 25 27 30 30 31 30

GFSNIL_sfc_dewp_012.txt.gz
Dewpoint
43 44 44 43 43 44 44 45 44 44 44 44 44 44 45 48 51 54 57 58 58 57
43 43 43 43 44 44 44 43 43 44 44 44 44 45 45 46 46 48 49 51 53 55
43 43 43 42 42 41 41 42 41 41 42 42 42 42 43 44 45 45 46 48 48 49
43 42 41 40 41 40 40 39 39 39 40 39 38 39 40 40 41 43 44 43 45 46
41 40 38 36 35 35 34 34 35 36 34 32 34 37 38 38 40 38 39 41 44 45
38 35 32 31 31 31 31 30 31 30 29 29 34 29 33 38 35 38 41 43 45 44
33 30 30 29 28 28 28 27 26 24 24 30 25 26 34 30 36 41 40 43 37 37
30 28 28 26 25 25 24 23 23 20 20 27 19 23 27 28 34 39 31 31 29 34
23 21 22 21 21 21 19 21 19 18 20 19 15 33 34 34 34 27 27 27 26 31
16 17 17 17 17 17 16 17 15 17 15 13 19 28 33 38 27 21 21 26 25 26
15 13 14 14 13 14 13 13 13 13 13 14 13 26 31 32 20 18 20 26 26 29
13 13 12 12 12 12 12 12 13 13 13 13 14 26 27 26 20 22 24 25 27 31
14 13 12 12 12 12 13 13 14 14 14 18 14 24 26 25 22 23 24 26 31 32
13 13 12 13 13 13 14 14 15 14 14 15 18 20 28 29 25 25 25 26 27 26

GFSNIL_sfc_dewp_015.txt.gz
Dewpoint
43 43 43 42 43 42 43 43 41 42 42 43 43 42 42 45 46 47 48 48 49 49
42 41 41 41 41 41 40 38 39 40 40 40 40 38 40 41 41 43 45 47 47 46
41 40 39 39 38 38 37 37 37 37 37 36 33 34 37 37 38 40 43 40 42 43
39 37 37 35 35 35 34 33 31 32 29 27 28 33 28 29 34 38 34 38 41 42
34 32 30 29 29 28 28 28 27 26 21 21 25 29 21 24 34 27 33 37 40 43
30 28 28 27 26 24 25 22 22 21 19 19 23 24 16 27 23 25 29 38 38 30
27 26 25 25 23 22 22 18 20 18 18 18 21 15 17 24 24 26 31 28 29 28
23 22 22 20 20 18 18 16 17 16 15 17 15 12 20 22 25 30 24 20 17 21
18 17 17 16 16 15 15 14 15 14 15 14 13 24 27 27 26 24 19 18 20 26
16 16 15 15 14 14 13 13 13 13 14 13 14 25 28 29 22 20 20 21 23 24
15 14 14 13 13 13 13 12 13 13 14 14 14 25 27 28 21 22 22 23 24 25
14 13 13 12 12 13 13 13 13 14 15 15 15 25 26 26 23 23 24 25 26 27
14 14 13 13 13 14 14 14 15 15 15 19 16 23 28 27 24 24 25 28 29 30
14 14 13 13 14 14 15 15 15 15 16 17 20 22 28 29 24 24 27 31 25 25

GFSNIL_sfc_dewp_018.txt.gz
Dewpoint
41 41 40 39 39 38 38 39 37 38 38 38 37 34 35 39 41 41 43 44 45 44
38 37 37 36 37 36 36 33 32 35 35 32 28 29 34 31 30 34 40 40 40 41
35 34 33 32 31 32 31 31 30 28 27 21 23 23 32 23 21 31 30 27 37 38
31 30 28 28 28 27 27 27 25 24 21 19 19 19 27 16 18 25 22 28 30 39
27 26 24 25 24 24 23 22 20 21 18 17 18 20 17 15 23 23 24 26 31 29
23 22 21 21 21 20 20 18 17 17 17 16 18 16 14 16 19 21 24 28 25 21
19 19 18 18 18 18 18 17 15 15 15 15 16 15 14 19 21 23 25 25 21 19
18 17 17 17 17 17 17 15 15 14 14 14 15 11 19 21 22 23 22 21 21 22
16 17 17 16 16 15 15 14 14 14 14 14 13 24 27 26 23 22 21 22 22 23
16 16 16 15 14 14 14 14 13 13 14 14 15 25 27 28 22 22 23 23 23 23
15 15 15 14 13 14 14 13 13 14 15 15 15 25 27 28 23 23 24 24 25 25
14 14 14 13 13 13 14 14 14 15 15 15 16 25 27 26 23 23 23 25 25 29
14 14 13 13 13 14 15 14 15 15 15 19 17 24 27 26 22 23 23 25 30 28
15 14 14 14 14 15 15 15 15 15 15 17 19 22 27 27 22 22 26 29 22 22

GFSNIL_sfc_dewp_021.txt.gz
Dewpoint
36 35 32 30 28 27 27 28 28 26 24 22 19 22 24 31 29 31 35 40 31 33
30 28 27 25 24 25 24 19 21 23 21 19 18 19 22 26 18 22 32 28 28 32
24 23 22 21 20 21 20 20 19 18 18 16 16 17 19 18 17 19 23 22 26 31
21 19 18 17 18 18 18 17 16 15 15 14 14 14 15 14 15 18 21 24 26 30
19 17 15 15 16 16 15 15 15 14 13 12 13 14 13 14 16 19 21 22 27 25
15 14 13 13 14 14 14 14 13 13 13 12 14 14 13 15 19 21 22 22 23 22
14 14 14 14 14 14 14 14 13 13 13 13 13 14 14 20 21 22 22 23 23 21
15 15 15 15 15 14 14 14 14 13 13 13 14 10 21 22 23 23 22 23 22 23
15 15 16 15 14 14 14 14 14 13 13 13 12 23 27 26 24 23 23 23 23 23
14 15 15 15 14 14 14 14 13 12 13 13 14 24 27 28 24 23 23 22 23 24
14 14 14 14 13 14 14 13 12 12 14 14 14 24 27 28 23 23 22 22 23 24
14 14 13 13 13 14 14 14 13 14 14 14 15 24 27 26 22 22 22 22 23 27
14 13 13 13 13 15 15 14 15 14 14 18 16 24 27 25 22 22 22 25 26 26
14 13 13 14 15 15 15 15 15 14 14 16 19 21 26 27 21 22 26 28 22 21

GFSNIL_sfc_dewp_024.txt.gz
Dewpoint
33 30 26 24 22 19 18 17 19 18 17 15 15 16 17 22 26 23 23 29 25 24
25 24 22 18 17 16 16 12 14 15 15 15 14 14 17 18 16 16 19 21 22 23
20 16 14 14 14 14 12 13 12 12 12 12 12 12 13 14 14 14 17 18 20 22
16 12 11 11 11 11 10 11 11 10 10 9 10 10 11 11 12 14 17 19 20 22
14 12 10 10 10 10 10 10 10 9 9 8 9 10 10 11 13 16 17 19 20 20
12 11 10 9 10 10 10 10 10 10 10 10 11 11 11 11 15 17 18 19 20 20
12 11 11 11 11 11 11 11 11 11 11 11 10 12 10 16 18 19 19 21 21 20
13 13 12 13 12 12 12 12 12 12 10 10 12 7 18 21 21 21 21 21 19 20
12 13 14 13 12 12 13 12 13 11 10 10 9 20 25 26 23 21 20 19 19 19
12 12 13 12 12 13 13 13 12 10 10 10 11 21 26 28 23 21 19 19 18 18
12 11 11 10 10 12 11 11 10 10 11 12 10 22 25 28 22 20 19 19 19 19
10 10 10 10 11 11 11 11 10 11 12 11 12 22 25 25 20 19 18 18 19 24
10 10 9 10 11 12 12 12 12 10 10 15 14 22 25 25 21 20 19 21 23 25
10 9 10 11 12 12 12 12 11 9 10 14 17 19 25 26 21 20 24 26 22 20

GFSNIL_sfc_dewp_027.txt.gz
Dewpoint
33 31 27 24 22 19 18 17 17 16 15 15 15 15 19 24 27 28 25 25 24 24
26 24 22 19 17 17 15 11 13 14 13 14 13 13 18 20 17 18 20 21 23 22
21 17 16 15 14 14 11 11 12 11 11 11 11 11 13 15 16 15 17 18 20 21
18 14 13 12 10 10 9 9 9 9 9 9 10 10 11 12 13 13 16 19 20 21
17 15 11 10 10 9 9 9 9 9 9 9 10 10 10 11 12 13 16 18 20 20
15 13 11 10 10 9 10 10 10 11 11 10 12 11 10 10 10 15 18 19 20 20
14 13 12 11 11 11 10 11 12 12 12 12 11 12 11 12 17 19 19 21 22 21
14 13 12 13 13 11 12 13 13 13 13 12 13 8 15 18 20 21 21 21 20 20
12 12 14 13 12 12 13 14 14 14 13 12 10 21 23 23 22 22 21 20 19 19
10 11 12 11 11 13 14 13 14 13 12 11 13 21 23 25 22 23 21 19 19 18
9 9 10 10 10 13 12 12 12 12 12 13 11 21 23 25 22 21 20 19 19 19
8 9 9 10 11 12 12 12 11 13 13 11 10 21 23 24 21 21 20 19 20 22
8 8 9 10 11 12 12 12 12 11 10 14 11 21 24 23 21 21 20 22 25 26
9 9 10 11 12 13 12 13 11 9 9 11 15 17 24 25 21 21 22 27 23 22

GFSNIL_sfc_dewp_030.txt.gz
Dewpoint
30 29 25 21 21 20 19 18 17 17 16 16 16 17 17 23 26 22 23 19 22 24
22 21 20 17 17 18 16 11 13 14 14 14 14 14 16 20 17 17 18 19 21 21
17 16 15 15 13 12 11 12 12 12 12 12 13 13 13 16 17 14 17 16 17 18
16 15 13 11 11 10 11 10 11 11 11 11 12 12 12 13 13 12 14 15 17 19
17 13 12 11 11 11 10 11 11 12 12 12 13 13 12 12 12 13 15 17 19 19
15 14 11 11 12 12 12 12 13 13 14 14 16 14 13 12 13 16 18 20 21 21
14 13 13 13 14 14 13 13 14 15 15 16 15 14 13 14 17 19 20 22 22 22
15 14 14 15 15 14 15 15 16 16 16 15 14 10 15 17 18 20 21 22 22 22
14 14 15 15 14 14 15 15 15 15 15 14 12 22 24 22 19 21 21 22 21 20
12 13 14 13 13 14 14 14 14 13 13 12 13 22 24 24 19 21 21 21 20 19
12 11 11 11 11 12 13 13 12 12 13 13 12 21 23 25 20 21 21 21 21 20
10 10 11 11 11 12 13 13 13 13 12 11 10 21 23 22 19 20 20 21 22 23
10 10 9 10 12 13 13 12 13 11 10 15 10 21 24 23 19 20 20 22 25 28
10 10 10 12 13 13 12 13 12 9 9 11 14 17 25 26 20 20 22 26 23 23

GFSNIL_sfc_dewp_033.txt.gz
Dewpoint
25 25 22 20 19 18 17 16 15 14 14 14 15 15 16 21 23 20 20 17 18 23
20 18 17 15 16 16 14 12 13 12 12 13 14 14 15 19 16 16 17 18 20 20
15 15 14 12 11 11 11 11 11 11 12 12 13 13 13 15 16 15 17 17 18 18
14 13 11 11 10 10 10 11 11 12 12 13 13 13 13 13 13 14 16 18 18 20
14 12 11 10 11 12 11 11 12 13 14 14 15 15 14 13 13 15 17 19 21 21
14 12 11 11 12 12 12 12 14 14 15 16 17 17 15 13 13 17 19 21 22 21
14 13 12 14 14 14 14 14 15 16 17 18 17 16 15 14 18 19 19 23 22 22
15 14 15 15 15 14 15 15 17 17 16 16 15 11 17 18 19 19 21 21 22 22
15 14 15 14 14 14 15 15 15 15 14 14 12 23 25 22 18 19 20 21 21 22
13 13 14 13 13 13 13 14 13 13 13 13 14 23 24 25 18 20 21 21 21 21
12 11 12 11 11 12 13 12 13 13 13 13 12 23 23 25 19 20 21 21 21 21
10 10 10 10 11 12 12 13 13 13 13 12 11 22 24 23 20 20 20 20 21 25
10 10 9 10 11 12 13 13 14 12 12 16 12 22 25 24 21 20 20 25 26 26
10 10 10 12 12 12 12 13 12 11 10 12 16 20 26 26 21 21 26 25 22 20

GFSNIL_sfc_dewp_036.txt.gz
Dewpoint
23 23 22 20 19 17 17 16 14 13 12 13 14 15 16 20 21 19 18 15 17 21
19 18 17 15 15 15 13 12 12 12 12 13 14 14 15 18 15 16 16 17 18 19
15 14 13 12 10 11 11 11 12 12 13 14 14 14 14 16 16 14 16 18 18 19
13 12 11 11 10 10 11 11 12 13 13 14 14 14 15 14 14 14 16 18 20 21
13 11 11 11 11 12 11 12 13 14 14 15 16 16 16 14 14 14 17 19 21 21
13 12 11 12 12 13 13 13 14 15 16 16 18 18 16 15 14 16 18 20 21 22
13 12 13 14 14 14 14 14 15 16 17 17 16 16 15 17 18 19 19 21 23 22
15 15 15 15 14 14 15 15 16 15 15 15 15 11 19 20 20 19 19 21 21 22
15 14 15 14 13 13 14 14 14 14 14 14 12 23 25 23 19 19 19 20 20 21
14 14 13 12 12 12 13 13 13 13 13 13 14 23 25 26 21 20 20 20 20 20
13 11 11 11 11 12 12 12 12 12 13 14 11 23 26 27 22 21 21 21 21 21
11 10 10 10 11 11 12 13 12 13 13 11 13 23 25 25 21 21 21 21 22 26
11 9 10 11 12 12 12 12 14 12 11 16 12 21 25 24 21 21 21 25 27 27
10 10 11 12 12 12 12 13 12 10 10 11 14 18 25 25 21 21 27 23 21 20

GFSNIL_sfc_dewp_039.txt.gz
Dewpoint
25 25 22 20 19 17 16 16 13 13 13 13 14 15 16 19 20 18 17 15 16 19
20 19 17 15 15 16 14 12 12 13 13 14 14 15 16 18 15 15 16 16 18 19
15 13 13 12 11 11 11 12 13 13 13 14 15 15 15 16 16 15 16 17 18 19
13 12 11 11 11 11 11 12 13 14 14 14 15 15 16 15 15 14 15 17 19 20
13 11 11 11 12 12 11 13 14 15 15 16 16 16 15 15 15 15 16 18 19 20
12 12 12 12 13 13 13 14 15 16 16 16 17 16 15 14 15 17 18 19 20 20
13 12 13 14 13 14 14 14 15 15 15 16 15 15 15 17 19 20 19 20 21 21
16 16 15 15 14 14 15 14 15 14 14 14 15 11 20 21 20 20 19 20 20 21
16 15 15 14 13 13 13 13 14 13 13 13 12 23 26 25 23 21 20 20 20 21
15 15 14 12 12 12 12 13 13 13 13 13 13 22 26 27 23 21 21 21 21 21
15 12 11 11 11 11 12 12 12 12 13 13 11 24 25 27 22 22 21 21 21 21
12 11 10 11 11 12 12 12 12 13 12 11 12 23 25 25 21 21 21 21 22 26
11 10 10 11 12 12 12 12 13 11 11 16 13 22 25 24 21 21 21 26 25 26
10 11 12 12 12 12 12 12 12 11 12 13 16 20 25 26 21 21 22 20 22 21

GFSNIL_sfc_dewp_042.txt.gz
Dewpoint
26 25 23 20 18 17 16 16 13 14 14 14 15 15 16 19 19 17 16 14 15 19
22 20 17 15 15 16 15 13 13 14 14 14 15 15 16 18 15 15 15 16 17 18
15 14 13 13 12 12 12 13 14 14 14 15 15 15 15 16 16 14 16 17 17 18
12 11 11 11 11 12 13 13 14 14 15 15 15 15 15 14 14 15 17 17 18 19
12 11 11 11 12 13 13 14 14 15 15 15 16 15 14 14 15 16 18 18 19 19
12 12 12 12 13 13 14 14 15 15 14 15 16 15 14 14 16 18 19 20 20 20
13 13 13 13 14 15 14 14 14 14 14 15 14 14 14 18 20 20 20 20 21 21
16 16 15 15 15 15 15 14 14 14 14 14 14 11 20 22 22 22 20 21 21 21
16 15 15 14 14 14 14 13 13 13 13 13 12 22 25 25 23 23 21 21 21 21
15 15 15 14 13 13 12 12 12 12 12 12 13 23 26 27 23 22 22 21 21 21
15 13 13 12 12 12 12 12 12 12 12 12 12 25 25 27 22 22 21 21 21 21
13 12 12 11 11 12 12 12 12 12 12 12 14 24 25 25 22 21 21 21 22 24
12 12 11 12 12 12 12 12 13 12 13 17 15 23 26 24 22 21 21 22 22 26
12 12 12 12 12 12 12 12 13 13 15 15 17 20 25 26 22 21 22 20 21 22

GFSNIL_sfc_dewp_045.txt.gz
Dewpoint
27 25 21 20 19 16 15 16 17 17 16 17 18 18 19 22 21 22 20 17 17 19
23 22 20 18 16 16 15 15 16 17 17 17 17 17 19 19 17 17 18 18 19 19
18 16 16 15 15 15 14 15 16 16 16 17 16 16 16 16 17 16 19 19 19 19
15 13 12 12 13 14 15 15 15 15 15 15 15 14 13 14 16 17 19 20 20 20
13 12 12 12 13 14 14 15 15 15 14 14 15 14 12 14 17 18 20 20 21 21
13 12 12 13 14 14 15 15 15 14 14 13 14 13 13 16 19 21 21 21 21 21
13 13 13 14 15 15 15 15 14 14 14 14 13 13 15 20 22 23 22 22 22 21
15 15 15 16 16 15 15 14 14 13 13 13 13 10 21 23 24 24 23 22 21 21
16 15 16 15 15 15 14 14 14 13 13 12 10 22 26 26 23 23 22 21 21 21
15 15 15 15 14 14 13 13 13 12 12 12 13 23 26 26 23 22 22 21 21 21
14 14 14 14 13 13 13 12 12 12 12 13 13 25 25 27 23 22 22 22 22 22
13 13 13 12 12 12 12 12 12 12 13 14 17 24 25 25 22 21 21 22 22 22
13 13 13 12 12 13 12 12 12 12 15 18 16 23 25 24 21 21 21 22 20 24
13 13 12 13 12 12 12 13 13 15 16 17 18 20 25 25 22 22 22 21 21 21

GFSNIL_sfc_dewp_048.txt.gz
Dewpoint
36 33 30 26 23 20 19 19 20 18 18 19 19 19 21 23 23 25 22 19 19 19
29 26 21 19 18 18 18 17 18 19 18 18 18 17 20 20 17 17 19 19 20 20
24 20 19 18 17 18 16 16 17 17 17 17 16 15 15 15 16 16 19 19 20 20
21 17 17 16 17 16 15 16 15 15 15 14 13 13 12 13 15 17 19 20 20 20
17 17 16 16 15 14 14 15 14 13 12 12 12 11 10 12 16 18 19 20 21 20
16 17 16 15 15 14 14 15 14 13 12 11 13 11 10 14 17 20 21 21 21 21
17 16 15 14 14 15 15 14 14 13 12 12 11 12 14 19 21 21 21 22 22 20
17 16 15 16 16 15 15 14 14 13 12 13 14 9 20 22 22 21 21 21 20 19
16 16 17 16 16 16 15 14 14 13 12 13 9 21 25 26 22 21 20 19 18 19
15 16 16 16 15 16 15 14 13 12 13 11 13 22 26 26 22 21 20 19 19 18
14 14 15 15 15 15 14 13 12 12 12 14 12 23 25 26 22 20 20 20 20 20
13 14 14 14 13 13 13 13 12 13 13 13 14 20 25 25 20 19 20 20 20 21
13 14 14 14 14 14 13 13 13 13 13 15 14 19 24 24 20 19 19 20 19 23
14 13 13 14 14 13 14 14 12 13 13 14 15 17 23 25 22 20 20 20 18 19

GFSNIL_sfc_dewp_051.txt.gz
Dewpoint
46 43 38 34 30 26 26 26 25 22 22 22 21 22 24 27 28 29 26 23 22 21
42 37 34 28 24 23 22 22 23 22 20 20 19 19 24 23 17 18 19 21 23 22
36 29 25 21 19 21 18 19 21 19 19 18 17 16 16 16 16 15 19 20 20 21
26 22 21 20 20 19 19 19 17 17 16 15 14 12 12 12 14 16 19 20 21 21
22 20 19 19 18 18 18 16 15 14 13 12 12 10 9 11 14 17 18 20 21 21
20 19 18 17 17 16 16 15 14 13 12 11 13 11 10 13 15 18 20 21 21 21
20 18 17 16 17 17 15 15 14 13 13 13 11 12 13 18 20 21 20 22 22 21
19 18 17 18 18 17 16 15 14 14 13 13 15 10 19 22 22 21 20 21 20 20
19 18 20 19 18 17 16 15 15 14 13 13 9 21 25 26 23 21 20 20 19 19
19 19 19 18 18 18 17 16 15 14 13 12 14 21 25 26 23 21 20 19 19 19
18 17 17 17 17 17 16 15 13 13 13 14 13 20 24 26 22 19 19 19 20 20
16 16 16 16 15 14 14 14 13 14 14 13 13 19 23 25 20 19 19 20 19 21
15 15 16 15 15 15 15 15 15 13 14 14 13 17 21 23 20 19 19 21 21 24
15 15 15 16 15 15 15 17 14 14 13 13 14 15 20 23 22 21 22 22 20 20

GFSNIL_sfc_dewp_054.txt.gz
Dewpoint
43 41 38 36 33 31 30 30 30 27 27 27 26 26 28 29 28 27 27 21 21 23
43 40 37 34 31 30 27 25 24 22 23 23 22 22 25 26 20 19 20 20 21 22
38 35 31 28 26 26 23 22 23 21 21 20 18 18 19 19 16 16 20 21 19 21
30 28 26 23 22 20 20 20 21 19 18 17 16 15 14 14 16 16 18 20 21 22
24 23 21 19 19 21 18 18 18 17 15 14 14 11 10 12 15 17 18 20 21 21
24 22 20 19 19 18 17 18 15 15 15 14 15 13 12 14 16 18 20 21 21 21
24 21 18 17 17 17 16 15 16 15 16 16 14 14 16 19 21 22 21 22 22 21
19 18 18 18 18 18 16 16 16 16 15 15 16 17 24 25 24 22 21 21 21 20
20 19 19 18 18 18 17 17 17 16 15 17 11 23 25 26 25 23 21 21 20 20
20 20 19 18 17 17 17 16 15 15 14 14 19 23 24 26 24 23 22 20 20 19
20 19 19 18 18 17 17 15 14 14 14 15 18 21 22 26 23 21 20 20 20 20
19 18 17 16 15 15 15 14 14 15 14 13 16 20 21 24 22 20 19 20 21 22
17 16 16 15 16 17 17 15 16 14 14 19 13 18 20 22 22 21 21 22 22 27
16 16 16 16 16 16 16 16 14 13 13 12 14 15 19 22 21 22 22 23 21 21

GFSNIL_sfc_dewp_057.txt.gz
Dewpoint
48 47 44 43 42 39 39 36 32 30 31 32 33 34 32 30 29 28 26 21 21 23
45 44 43 41 40 37 35 31 29 29 28 29 29 29 28 26 20 22 21 21 21 23
43 42 40 38 35 31 28 26 26 27 26 26 23 23 23 21 18 18 21 22 19 21
38 37 34 31 29 26 24 24 23 23 21 23 18 18 17 19 17 17 18 19 21 21
30 30 28 27 25 22 22 22 20 19 18 17 15 13 13 13 15 17 18 19 21 21
25 24 23 21 21 21 21 21 20 16 16 14 16 14 14 16 17 19 20 21 21 21
24 22 20 20 20 24 24 24 17 18 17 17 15 17 20 22 23 22 22 22 22 22
23 22 22 23 24 23 21 17 17 15 16 16 18 19 24 25 25 24 22 22 21 21
24 24 24 23 21 20 17 16 16 16 16 14 19 28 28 26 25 24 22 22 22 21
24 26 27 26 21 21 16 16 17 16 15 17 22 26 26 26 24 23 22 20 20 19
31 29 27 20 18 20 20 17 14 14 15 18 22 25 24 25 22 22 20 20 20 21
30 27 24 25 26 22 16 15 16 17 15 14 22 22 21 23 22 21 21 22 22 24
28 25 21 16 16 17 17 17 17 15 14 18 13 18 18 20 21 21 21 22 23 27
25 21 16 17 18 19 17 15 14 13 13 12 14 15 19 21 19 20 22 23 22 21

GFSNIL_sfc_dewp_060.txt.gz
Dewpoint
53 53 51 48 46 45 43 43 41 40 39 36 33 32 32 32 33 32 25 21 21 23
51 48 46 45 45 44 43 41 39 39 37 33 32 31 31 30 27 25 23 22 22 23
47 46 45 44 43 43 42 38 38 35 31 30 29 27 26 22 21 21 22 23 20 21
43 43 43 42 41 40 36 33 30 27 28 25 25 26 21 19 18 18 19 20 20 21
41 41 40 39 37 33 31 29 26 23 22 21 21 19 17 15 17 18 18 19 20 21
36 34 33 30 29 29 26 24 21 21 20 18 17 15 16 17 18 19 21 21 21 21
31 30 28 24 24 24 23 23 22 18 17 17 18 20 21 23 23 22 22 22 22 21
29 27 24 25 26 24 21 19 19 17 17 20 21 22 25 25 24 23 22 22 21 22
26 27 28 26 24 23 24 24 24 25 25 24 26 30 30 27 23 23 22 21 21 20
27 27 27 27 27 28 26 26 28 26 23 24 26 29 29 29 22 21 20 19 20 20
32 32 32 31 30 27 29 27 25 20 19 23 24 27 26 27 21 21 21 21 21 21
34 33 32 32 31 30 28 23 17 18 17 22 23 24 23 24 21 20 20 21 22 24
33 33 32 29 28 27 25 22 20 16 14 18 14 21 19 21 21 20 20 22 23 26
32 30 25 24 23 22 19 17 15 14 13 13 15 15 20 22 20 21 23 23 22 22

GFSNIL_sfc_dewp_063.txt.gz
Dewpoint
56 55 53 52 52 51 49 47 45 45 45 43 40 37 37 34 33 30 27 23 24 25
52 51 50 49 49 48 47 45 44 44 42 40 37 32 33 31 30 24 26 24 24 25
49 47 46 46 46 44 45 43 43 42 38 36 34 30 28 25 24 23 25 25 22 23
44 44 44 44 44 43 42 42 40 39 35 30 27 26 24 23 21 21 22 22 21 22
42 43 42 41 42 42 39 38 35 31 28 27 26 23 20 18 20 20 20 21 21 21
40 41 42 41 41 38 34 29 27 27 25 22 20 17 17 18 21 23 25 24 22 22
36 37 35 33 33 31 26 25 24 22 19 20 22 23 26 28 29 28 24 24 23 22
34 29 29 27 26 25 21 18 17 18 21 24 26 26 29 29 27 23 22 22 22 22
27 28 26 24 23 23 24 25 26 29 32 34 35 37 35 29 24 22 21 20 20 20
29 29 29 29 29 29 30 30 31 31 32 33 34 35 34 29 23 21 20 20 20 20
32 32 32 32 32 31 32 32 33 33 33 32 33 33 31 27 21 20 20 21 21 21
34 33 33 32 32 33 32 32 31 31 30 28 25 27 28 24 20 20 20 21 22 24
34 33 33 32 32 32 32 31 29 24 20 24 19 22 19 24 21 20 20 23 23 26
33 32 33 32 32 30 25 19 15 13 14 15 16 18 21 26 22 22 24 23 23 23

GFSNIL_sfc_dewp_066.txt.gz
Dewpoint
57 56 56 55 56 54 53 53 50 50 48 47 46 44 43 42 37 35 32 26 27 27
52 53 54 51 51 50 49 48 49 49 47 45 43 39 38 38 33 29 28 26 25 26
49 50 49 47 47 46 46 46 46 45 45 43 39 33 30 28 25 25 26 26 24 25
46 46 45 44 43 44 44 44 43 42 41 39 35 28 26 25 23 23 23 23 23 24
45 45 44 45 44 43 42 41 39 37 33 28 25 24 23 22 23 24 23 24 24 23
43 43 42 42 42 41 39 36 33 30 27 26 25 25 25 26 26 27 29 30 30 29
40 40 39 38 38 35 33 31 29 25 23 22 22 25 27 30 31 31 29 29 29 27
34 33 31 29 27 26 25 23 23 24 26 27 29 30 31 31 31 29 28 28 27 27
27 24 24 24 23 23 25 27 30 31 33 35 36 37 35 31 30 29 28 27 25 22
30 30 30 29 28 29 30 32 33 35 35 35 36 38 36 34 31 29 27 22 21 21
32 33 34 33 33 32 33 33 33 34 34 33 36 38 34 32 29 24 21 21 21 22
33 33 33 32 33 34 33 32 32 33 32 33 34 36 33 26 20 20 20 21 23 24
34 33 33 33 32 32 32 32 32 32 32 33 30 31 26 25 21 20 22 23 23 26
34 33 33 33 32 32 32 31 27 24 20 18 18 22 27 27 23 24 24 24 23 23

GFSNIL_sfc_dewp_069.txt.gz
Dewpoint
53 59 60 60 59 58 57 56 57 55 53 52 51 50 49 49 48 46 43 38 33 29
47 52 58 58 58 58 56 54 53 53 52 51 50 49 47 46 42 37 34 32 29 28
46 49 53 55 54 53 51 51 51 50 49 48 46 45 44 40 33 28 27 27 26 27
46 49 50 50 48 48 47 47 47 47 46 43 40 38 33 29 26 24 24 25 26 26
46 47 47 47 46 46 45 45 43 42 39 34 29 28 24 24 23 23 25 28 28 28
44 44 45 44 43 43 41 40 38 33 29 27 26 25 26 28 29 30 31 31 31 31
41 42 42 41 38 35 33 31 29 27 26 26 26 28 29 30 31 31 31 31 31 31
34 32 31 32 30 29 28 27 28 29 29 29 30 30 30 31 31 31 31 32 32 32
27 26 25 25 26 27 28 31 33 36 34 35 35 37 36 33 32 32 32 30 29 30
31 31 30 30 31 32 34 35 36 38 37 37 37 38 37 35 32 30 29 28 24 25
33 33 33 33 33 34 35 35 35 35 36 36 37 36 34 32 30 29 24 26 27 24
34 34 33 33 33 34 33 33 33 33 33 33 33 33 33 28 23 22 23 25 24 24
35 34 33 33 33 33 33 33 34 33 34 34 33 33 33 27 22 25 23 24 23 26
34 34 34 33 33 33 32 31 31 30 29 28 23 30 31 28 24 24 24 23 23 23

GFSNIL_sfc_dewp_072.txt.gz
Dewpoint
45 52 58 59 59 60 60 60 60 60 60 59 59 58 57 56 55 54 54 49 42 34
44 46 51 56 59 60 60 60 59 59 57 56 55 54 54 53 52 50 48 42 34 31
45 46 47 50 54 56 57 55 55 55 54 52 52 51 50 50 46 43 39 34 29 29
45 46 48 50 51 52 52 51 52 52 51 49 48 47 42 38 34 32 33 34 33 31
47 47 48 48 49 49 49 48 48 48 46 43 40 35 31 27 27 28 29 30 30 31
44 45 46 45 46 46 46 44 43 39 35 31 29 27 26 27 28 30 31 33 33 33
40 42 41 40 38 37 34 32 30 29 28 29 29 30 30 32 33 33 33 33 33 33
31 32 32 31 30 29 29 28 29 30 31 32 32 33 33 34 33 33 33 33 34 34
29 29 29 30 30 31 31 32 34 34 35 35 35 37 37 35 34 33 33 32 31 31
31 31 32 32 33 34 35 36 36 37 37 37 38 39 39 36 33 32 31 28 27 26
33 33 34 35 36 36 36 36 36 36 36 36 37 38 35 32 30 28 27 28 28 27
34 34 35 34 34 35 35 34 33 33 33 33 34 34 30 25 23 25 26 27 26 25
36 35 34 34 33 33 34 34 34 34 35 36 31 33 30 27 28 24 22 23 22 24
36 35 34 35 35 35 34 33 33 32 30 28 31 30 29 26 24 23 22 22 21 22

GFSNIL_sfc_dewp_075.txt.gz
Dewpoint
43 44 48 56 57 58 59 58 60 60 61 61 61 61 60 59 59 58 57 56 54 48
43 44 46 49 56 59 59 60 60 60 59 60 60 59 58 58 56 55 54 47 42 38
44 45 45 46 48 53 57 57 56 57 57 56 55 54 54 52 49 45 43 42 39 39
45 46 47 47 49 51 52 52 53 53 53 52 51 51 49 47 43 41 39 39 36 35
46 47 47 48 48 48 49 50 50 50 49 47 46 41 37 37 37 36 34 35 35 34
44 44 44 45 46 46 46 45 43 41 39 36 34 31 29 31 32 33 33 34 34 35
37 37 36 34 34 33 33 32 31 31 30 30 30 31 31 33 34 34 34 35 35 35
31 32 31 31 31 31 31 31 32 32 33 33 34 33 34 34 34 34 34 34 34 35
31 32 32 33 34 34 35 35 35 35 35 36 37 38 38 35 34 34 33 32 32 33
32 33 35 35 35 35 36 36 36 36 36 36 37 39 38 36 32 32 32 32 32 29
34 35 36 36 36 36 36 36 36 35 35 36 36 37 36 33 31 31 29 28 27 25
35 35 35 35 35 35 34 33 33 34 34 33 32 31 30 27 26 27 28 29 29 24
36 35 35 35 34 34 35 34 35 35 33 32 30 31 29 29 28 27 24 23 22 25
36 35 35 35 35 35 34 33 32 31 30 30 30 29 29 27 24 23 23 22 21 22

GFSNIL_sfc_dewp_078.txt.gz
Dewpoint
44 44 45 46 53 57 58 59 59 60 60 60 61 61 61 60 60 59 57 56 55 48
44 44 45 45 47 53 57 60 59 59 59 60 60 60 59 58 58 57 56 50 45 42
45 44 45 46 46 49 54 55 55 56 57 57 56 55 55 53 49 46 44 43 42 40
46 47 47 48 49 49 50 51 52 53 52 52 51 50 49 46 45 43 41 41 39 38
44 45 46 47 47 48 48 49 49 49 47 44 40 39 40 39 39 38 37 36 36 36
38 38 37 36 34 35 35 34 33 33 32 30 30 31 32 34 34 34 35 36 36 36
33 33 32 31 31 32 32 32 32 32 32 32 32 33 34 34 35 35 35 36 36 36
32 32 33 33 33 33 33 33 34 34 34 34 34 33 34 34 34 34 34 34 35 35
33 34 35 35 35 35 35 36 36 36 37 36 36 38 37 35 34 33 32 32 32 33
35 36 36 36 36 36 36 36 36 36 36 36 36 38 38 36 31 31 32 32 32 32
36 36 36 36 36 36 36 35 35 35 36 36 37 37 36 33 30 31 30 29 28 27
36 35 36 35 34 34 34 33 33 33 31 30 31 31 30 29 28 28 27 28 28 26
36 35 34 34 33 34 34 34 34 33 30 31 29 30 30 29 28 27 27 25 25 26
35 35 35 35 35 34 34 32 30 29 30 29 29 28 29 28 25 23 23 21 21 22

GFSNIL_sfc_dewp_081.txt.gz
Dewpoint
43 44 44 45 47 53 57 58 61 61 61 61 61 61 61 61 60 59 58 57 56 53
44 44 44 45 46 49 54 58 59 59 59 59 59 59 59 58 58 58 56 55 52 47
46 47 47 47 49 50 51 52 53 54 56 56 55 55 55 52 50 48 45 44 43 41
45 46 47 47 48 48 49 50 50 51 50 50 49 49 48 46 44 42 41 41 39 38
42 41 41 38 39 44 44 46 45 42 39 38 36 39 40 39 39 39 38 37 37 37
35 33 32 32 33 33 33 32 32 32 31 32 34 34 35 36 36 36 36 37 37 36
32 32 32 32 33 33 33 33 33 33 33 34 35 35 35 35 36 36 36 36 36 36
33 33 34 34 34 34 35 35 35 34 34 34 34 34 35 35 35 34 34 35 36 36
35 35 35 35 36 36 36 37 37 36 36 36 36 38 37 34 32 32 33 32 33 34
36 36 36 36 36 36 36 36 36 36 36 36 36 38 38 36 31 30 31 31 32 32
37 37 37 36 36 36 36 35 36 36 37 37 38 38 37 34 30 30 29 29 28 28
36 36 36 35 34 34 34 33 32 32 29 29 31 32 32 29 27 27 26 26 26 25
36 35 34 34 34 34 33 32 31 29 29 32 29 31 31 28 26 25 26 26 25 27
35 35 35 35 34 34 33 31 29 28 28 27 28 28 30 29 24 23 22 21 21 22

GFSNIL_sfc_dewp_084.txt.gz
Dewpoint
44 44 44 44 46 51 55 57 59 59 60 60 62 62 61 60 60 59 59 58 57 55
45 45 44 45 46 48 53 57 57 58 59 59 60 60 59 58 58 57 54 53 52 48
45 46 46 47 49 50 50 51 53 54 55 54 55 56 56 52 50 48 45 44 43 42
44 44 44 45 46 47 48 49 49 49 48 48 48 48 47 45 44 43 41 41 40 40
37 37 36 36 37 42 43 42 41 39 37 37 40 41 41 41 41 40 39 38 38 38
34 33 33 33 34 34 33 33 33 33 34 35 36 37 37 37 37 37 37 37 37 37
32 32 33 34 34 34 34 34 34 35 35 35 36 36 36 36 36 36 36 36 36 36
34 34 35 35 35 35 35 35 34 34 34 35 35 35 35 35 35 35 35 36 36 36
35 36 36 36 37 37 37 36 36 36 36 36 37 38 37 34 33 34 33 33 33 36
36 36 36 36 36 36 36 37 36 36 36 36 37 38 37 35 30 31 31 32 32 31
37 37 37 36 36 36 36 36 37 37 37 38 38 38 37 35 28 28 28 28 26 26
37 36 36 35 34 35 34 34 33 34 33 32 33 35 33 29 26 25 25 26 25 24
37 35 34 34 33 34 31 31 29 29 29 31 29 32 30 27 25 24 25 24 25 28
36 35 35 34 34 33 30 29 27 27 26 26 27 29 30 28 23 22 22 21 21 22

GFSNIL_sfc_dewp_087.txt.gz
Dewpoint
44 44 43 43 44 49 54 56 58 60 60 60 60 60 60 59 60 59 58 58 56 56
45 45 44 45 46 47 51 56 56 57 57 58 59 59 58 57 57 55 51 50 50 49
45 45 47 48 48 49 50 51 52 54 55 55 55 55 55 51 50 48 46 45 45 43
43 43 44 45 46 47 48 49 49 48 48 48 49 49 47 46 45 44 42 42 41 41
38 37 37 37 40 44 42 40 40 39 40 41 42 43 43 42 41 40 40 39 39 39
34 34 34 34 34 34 34 34 34 35 36 37 38 38 38 39 38 39 39 39 38 38
33 33 34 34 35 35 35 35 35 36 36 36 37 37 37 37 37 37 37 37 37 36
34 35 35 36 36 36 35 35 35 35 35 36 36 36 36 36 36 35 35 35 35 35
35 36 36 37 37 37 36 36 36 37 37 37 38 39 38 36 35 35 34 34 34 35
36 36 37 37 36 36 36 37 36 36 36 36 37 39 38 36 33 33 33 33 32 29
37 37 37 37 36 36 37 37 37 37 38 37 37 38 37 35 29 29 28 26 25 25
37 36 36 35 35 35 35 35 34 35 35 35 36 37 34 29 26 25 25 25 24 25
37 36 35 35 34 34 34 32 32 31 29 32 30 31 30 26 24 24 24 25 25 28
36 35 35 34 34 33 31 30 28 27 27 27 29 29 30 28 23 23 23 22 21 22

GFSNIL_sfc_dewp_090.txt.gz
Dewpoint
44 44 44 43 44 48 52 55 56 58 59 60 60 60 59 58 57 56 56 57 57 57
45 44 44 44 45 46 48 54 54 55 56 57 58 59 59 58 58 56 54 52 52 51
44 45 45 46 47 48 49 50 51 55 56 56 56 57 56 53 52 49 47 47 47 45
42 42 43 44 45 46 47 47 47 49 49 49 50 50 49 48 47 45 43 43 43 42
38 38 38 39 41 42 41 39 40 41 42 43 44 45 45 44 44 43 42 41 41 39
35 35 35 35 35 35 35 35 36 37 38 39 39 40 40 40 40 40 39 39 38 39
34 34 34 35 35 35 35 36 36 37 37 37 37 37 38 38 37 37 37 37 37 37
34 35 35 36 36 36 35 35 36 36 36 36 37 37 37 37 36 36 36 35 35 35
35 36 36 37 37 36 36 36 37 37 38 38 39 40 39 37 36 36 35 34 34 35
36 36 36 37 37 36 36 37 37 37 37 38 39 40 39 37 34 33 33 33 31 28
36 36 37 37 37 37 37 37 37 37 37 37 37 38 37 36 32 31 29 26 24 25
37 36 36 36 36 36 36 35 35 36 36 37 37 37 36 29 25 25 25 24 25 26
37 36 35 35 34 34 35 34 33 33 33 35 32 34 31 27 25 24 25 26 27 29
37 36 35 35 34 34 33 31 30 29 29 28 29 28 29 27 23 23 24 23 22 23

GFSNIL_sfc_dewp_093.txt.gz
Dewpoint
52 55 54 53 53 54 55 56 57 59 61 62 62 62 61 60 59 58 59 58 57 57
46 46 45 45 46 47 48 52 55 57 58 58 60 61 61 61 60 59 59 59 58 56
46 46 47 47 48 50 51 52 54 55 55 56 57 59 60 58 56 55 51 51 51 49
43 44 45 47 48 49 49 49 50 50 51 52 52 53 52 51 49 49 47 47 47 46
40 40 41 42 43 44 42 42 43 45 46 46 46 48 49 48 47 46 46 44 43 42
37 38 37 37 38 38 38 38 39 41 42 42 43 43 44 43 43 42 42 42 42 41
36 36 36 36 36 36 37 37 38 39 39 39 40 40 40 40 40 39 39 39 39 39
35 36 36 36 36 36 36 36 37 37 37 38 39 38 39 38 38 38 37 37 37 37
36 36 37 37 37 36 37 37 37 38 38 39 39 40 40 38 37 37 37 36 36 37
36 36 37 37 37 37 37 37 38 38 39 40 40 41 40 39 35 34 34 34 34 31
36 37 37 37 37 37 37 37 37 37 38 38 39 40 39 37 35 34 31 28 26 26
37 37 37 37 37 37 37 37 37 37 38 37 37 38 38 33 30 26 24 25 28 30
38 37 37 36 35 35 36 36 36 35 36 37 36 36 33 28 24 23 24 28 29 30
37 37 36 36 35 35 35 34 33 32 31 30 31 30 30 28 23 24 25 25 25 25

GFSNIL_sfc_dewp_096.txt.gz
Dewpoint
64 64 63 64 63 62 62 62 62 63 64 64 63 63 63 63 62 61 61 60 60 59
54 55 54 53 54 54 53 53 55 57 58 59 60 62 62 62 62 61 61 61 60 59
49 48 48 47 47 48 50 51 53 54 54 55 56 57 59 61 61 61 59 58 59 55
45 46 47 48 48 49 50 51 52 52 52 53 53 54 56 57 55 55 52 51 51 50
43 44 45 45 46 47 46 47 48 49 49 49 50 51 52 51 50 49 48 47 49 46
42 42 42 42 43 43 43 44 44 45 46 46 47 47 47 48 46 46 46 46 45 44
40 40 40 40 41 41 41 42 42 42 43 43 44 45 45 44 43 43 42 43 43 42
39 39 39 39 39 39 39 39 39 40 40 41 42 41 43 43 43 42 41 41 40 40
38 38 39 39 39 39 39 39 39 39 40 40 39 40 41 41 40 39 39 39 39 38
38 38 39 39 38 39 39 39 40 40 40 41 41 41 41 40 36 35 35 37 37 35
38 38 39 39 39 39 39 39 39 39 40 40 40 41 40 39 37 36 34 33 32 32
38 39 39 39 40 39 38 39 39 39 39 38 38 40 39 36 33 31 28 27 27 27
39 39 39 39 39 39 39 37 38 38 37 38 37 38 37 34 30 26 24 28 30 31
39 39 39 39 38 38 37 36 36 35 35 35 35 34 34 29 24 23 25 26 25 26

GFSNIL_sfc_dewp_099.txt.gz
Dewpoint
61 60 59 59 60 61 61 61 64 63 63 62 62 62 62 62 62 62 62 61 60 60
63 62 62 58 59 61 60 60 62 62 63 63 63 63 63 62 62 62 61 61 61 60
53 53 53 52 52 52 52 52 54 54 55 55 57 57 59 60 61 61 61 60 60 58
49 50 49 49 49 50 51 51 51 51 51 51 52 53 54 55 57 58 57 54 56 53
45 45 46 46 47 47 47 47 48 49 50 49 50 51 52 53 51 52 51 50 51 48
43 43 43 44 44 44 44 45 45 46 47 47 48 48 49 49 48 48 47 48 47 46
42 42 42 42 42 42 43 43 43 44 44 44 45 46 46 46 45 45 44 45 45 45
41 41 40 40 40 40 40 41 41 41 41 42 43 42 44 45 44 43 42 42 41 42
40 40 40 40 40 40 40 40 40 41 40 41 40 41 41 42 42 42 41 40 39 38
39 40 40 40 39 40 40 40 41 41 41 41 42 41 41 41 37 35 35 37 38 36
39 40 40 40 40 41 40 40 40 40 41 41 41 41 41 40 38 37 36 35 34 34
39 40 40 40 41 41 40 40 39 40 40 40 40 40 40 36 34 32 30 30 31 30
40 40 40 40 41 40 39 38 38 38 38 38 38 39 38 35 31 29 27 29 29 29
40 40 40 40 40 39 38 37 37 37 37 37 37 37 38 35 29 27 27 28 28 30

GFSNIL_sfc_dewp_102.txt.gz
Dewpoint
58 58 58 58 58 58 60 61 63 62 62 62 62 62 62 62 62 62 61 61 61 60
59 58 58 58 58 59 59 60 61 62 62 62 62 62 62 61 61 61 61 61 61 60
56 58 57 56 54 54 54 55 58 59 59 59 59 59 60 60 60 60 60 60 60 59
53 51 52 52 53 53 53 53 54 54 55 54 54 54 53 53 54 54 54 55 56 56
47 48 48 49 50 50 48 48 49 50 49 49 50 50 51 51 51 50 51 52 52 51
44 44 45 45 45 45 45 45 46 47 47 48 48 48 48 49 48 49 49 49 49 48
43 42 42 43 43 43 44 44 44 44 44 44 45 45 46 46 46 45 45 45 46 46
41 41 41 41 41 41 41 41 41 41 41 42 42 41 43 45 44 43 42 42 42 42
40 40 41 40 40 40 40 40 40 40 40 41 40 42 42 42 40 41 41 39 39 40
40 40 40 40 40 40 40 40 40 40 41 40 40 41 41 42 37 35 35 37 38 37
40 40 40 40 40 40 39 39 39 39 39 39 40 42 41 41 38 38 37 36 35 35
40 40 40 40 39 39 38 37 37 38 38 37 40 41 40 37 35 33 33 33 34 33
40 40 39 39 38 39 39 38 38 37 35 37 37 40 39 35 32 30 29 29 32 32
40 39 39 38 37 37 39 38 37 36 34 34 36 38 39 36 30 30 29 30 29 29

GFSNIL_sfc_dewp_105.txt.gz
Dewpoint
58 57 57 57 58 58 58 60 62 62 62 62 62 61 62 61 61 61 61 60 61 60
56 57 57 57 57 58 58 60 61 61 60 62 61 61 61 61 61 61 61 61 61 60
57 57 57 57 57 57 58 58 60 60 60 60 61 61 60 60 60 61 60 59 59 58
54 54 54 55 54 54 54 55 57 58 58 56 55 53 54 55 54 55 54 55 55 56
51 50 51 51 51 52 52 52 51 51 51 50 50 51 51 51 51 50 50 50 51 52
47 47 48 48 47 47 47 47 47 48 48 48 48 48 48 48 48 48 48 48 49 50
44 44 44 44 44 45 45 45 45 45 45 45 45 46 46 45 45 45 45 46 47 47
42 42 42 42 42 42 42 42 42 42 42 42 41 41 42 44 43 42 43 43 42 42
40 40 40 40 40 40 40 40 41 40 40 40 41 42 42 42 41 40 39 38 38 40
40 40 40 40 40 40 40 40 40 40 40 39 39 42 42 42 37 35 35 38 39 38
40 40 40 40 40 39 39 38 38 38 38 38 40 42 41 40 38 38 38 38 37 36
40 40 40 39 38 37 37 36 36 37 37 36 39 41 40 38 35 35 35 35 35 35
40 40 39 38 37 36 36 37 38 38 34 37 37 40 40 36 33 32 32 32 35 35
39 39 38 38 37 37 37 38 38 37 36 36 35 39 39 37 31 31 30 31 31 32

GFSNIL_sfc_dewp_108.txt.gz
Dewpoint
58 58 58 58 59 59 59 59 60 60 60 61 61 61 61 61 61 61 60 60 60 60
56 56 56 56 56 57 57 58 59 60 60 60 60 60 60 60 60 60 60 60 60 60
55 55 55 56 56 56 56 57 58 59 59 59 60 60 60 59 60 59 59 60 60 60
55 55 55 55 56 56 56 57 57 59 58 58 58 57 57 56 56 56 55 55 55 56
53 54 54 54 53 53 53 53 54 55 54 52 51 51 52 51 52 52 51 50 50 50
49 49 49 50 49 49 48 48 50 50 49 49 49 48 48 47 47 47 47 46 47 48
46 46 47 46 46 45 45 45 46 46 46 45 45 46 46 45 44 44 44 44 45 46
44 44 43 43 43 43 43 43 43 42 42 42 42 41 42 44 43 42 42 41 42 43
41 41 41 41 41 41 40 40 41 40 41 40 41 43 43 43 40 40 40 39 38 39
40 40 40 40 40 40 39 39 39 39 39 39 39 42 42 41 38 35 34 35 37 39
40 40 40 40 39 38 38 38 37 37 37 37 39 42 41 40 39 39 38 37 37 37
40 39 39 38 37 37 37 36 35 36 36 36 37 41 40 38 36 36 36 36 36 36
40 39 38 37 36 36 36 36 36 36 35 36 35 40 40 37 34 32 33 33 35 37
39 38 38 37 36 36 36 36 36 37 37 34 35 37 41 39 33 32 31 31 32 33

GFSNIL_sfc_dewp_111.txt.gz
Dewpoint
61 61 61 60 60 60 59 60 61 61 61 61 61 61 61 61 61 60 59 59 60 60
58 58 58 57 57 58 57 58 59 59 59 60 59 59 59 59 59 59 59 59 59 59
56 56 56 56 56 56 56 56 57 58 58 58 58 59 58 58 58 58 58 58 58 58
54 55 55 54 54 55 55 57 56 58 58 57 57 58 57 57 56 56 55 55 54 54
54 54 53 53 53 53 54 54 55 56 56 55 53 52 52 51 51 51 51 50 51 49
52 52 51 51 51 50 50 49 50 50 50 49 49 48 48 48 48 48 46 45 45 45
48 48 48 48 47 46 46 46 46 46 46 45 45 45 45 44 44 44 43 43 43 43
45 45 44 44 44 44 44 43 43 43 42 42 41 42 41 41 41 41 41 40 41 41
43 43 42 42 42 41 41 41 41 40 40 40 42 44 44 41 38 38 38 37 37 38
41 41 40 40 40 40 39 39 38 38 39 38 39 43 43 41 38 36 36 38 36 38
40 40 40 39 39 38 37 37 37 37 37 37 39 42 41 41 38 39 39 38 37 37
40 39 39 38 37 36 37 36 35 36 35 35 36 41 40 39 36 34 34 35 36 36
39 39 38 37 37 36 35 36 36 35 34 36 34 39 40 39 35 32 32 32 33 37
39 38 38 37 36 36 35 35 34 36 38 37 34 35 39 41 35 34 33 31 31 33

GFSNIL_sfc_dewp_114.txt.gz
Dewpoint
61 61 62 61 62 63 63 63 63 63 63 63 63 62 62 61 61 60 60 59 59 59
62 62 61 62 62 62 60 60 61 61 61 61 60 59 60 58 57 58 57 58 58 58
59 59 58 58 58 57 57 58 58 58 58 58 58 58 58 57 57 57 57 58 57 58
57 56 56 56 55 55 55 56 55 56 56 56 56 57 57 57 57 57 55 53 52 51
55 54 54 54 54 54 54 54 54 55 56 56 54 54 55 53 51 51 51 50 49 48
53 53 52 52 52 52 52 51 51 51 50 50 50 49 49 49 49 47 46 45 45 44
49 50 49 49 48 48 48 48 47 47 46 46 46 45 45 44 43 43 43 42 42 42
46 46 45 45 45 45 45 44 44 43 42 42 42 42 41 42 41 40 39 39 39 39
44 43 43 43 42 42 41 41 41 40 40 40 43 45 44 40 39 40 39 39 37 37
42 41 41 41 41 40 39 39 38 38 39 38 40 44 43 41 38 36 37 38 35 37
40 40 40 39 39 38 37 37 37 37 37 37 40 43 42 40 38 39 38 37 36 35
39 38 38 37 37 36 36 35 35 36 35 35 36 42 41 38 34 33 33 34 34 35
39 38 37 37 36 35 35 35 36 35 34 37 34 39 40 39 34 31 32 33 33 37
38 38 37 36 36 36 35 35 35 35 36 37 34 34 40 40 35 35 34 33 33 33

GFSNIL_sfc_dewp_117.txt.gz
Dewpoint
60 60 60 62 62 62 62 62 63 63 63 63 63 63 63 63 62 62 60 60 60 59
60 60 61 61 62 62 62 62 63 63 63 63 63 63 62 61 61 60 60 60 60 59
61 62 61 62 61 60 60 61 62 62 62 61 60 60 60 59 59 59 59 59 59 57
59 59 59 60 59 59 59 60 60 60 60 59 59 59 58 58 58 57 56 55 53 51
57 57 57 56 56 56 56 56 56 57 57 57 57 58 58 55 55 54 52 50 49 48
55 55 55 54 54 54 54 54 55 56 56 54 53 53 54 53 50 49 48 47 46 45
53 53 52 52 51 51 51 51 51 50 50 49 48 48 47 46 46 45 45 44 44 44
50 50 48 48 47 47 48 47 46 45 44 44 45 44 44 44 43 43 43 42 41 42
47 46 46 45 44 44 44 44 43 42 42 43 44 44 44 42 42 41 41 41 40 40
44 44 43 43 42 42 42 41 41 41 42 43 44 44 43 42 40 38 39 41 39 39
42 42 42 41 41 40 40 40 40 40 40 42 43 43 42 41 40 40 40 39 39 38
41 40 40 40 40 39 39 39 39 39 39 41 42 43 42 39 37 37 37 36 37 37
40 40 39 39 38 38 38 38 38 37 37 38 39 42 41 39 36 35 35 35 35 36
40 39 39 38 38 38 38 38 37 37 38 38 37 37 41 41 37 36 35 35 35 34